Location: Berlin
(52.5171°N, 13.3759°E)
Time: 10:59:11
(UTC+01:00)

ISS - Pass Details

Date: 09 January 2018
Orbit: 402 x 407 km, 51.6° (Epoch: 18 January)

Event Time Altitude Azimuth Distance (km) Brightness Sun altitude
Exits shadow 07:21:27 - 271° (W) 1,596 -1.4 -7.7°
Reaches altitude 10° 07:21:48 10° 269° (W) 1,469 -1.5 -7.6°
Maximum altitude 07:24:37 26° 210° (SSW) 836 -2.3 -7.3°
Drops below altitude 10° 07:27:26 10° 151° (SSE) 1,465 0.0 -6.9°
Sets 07:29:42 0° 138° (SE) 2,323 1.6 -6.6°
